OpenBCM V2.0.3 (Linux)

Packet Radio Mailbox

IZ3LSV

[San Dona' di P. JN]

 Login: GUEST





  
LU9DCE > KEPLER   28.12.19 18:35l 245 Lines 12060 Bytes #999 (0) @ WW
BID : 6054_LU9DCE
Read: GUEST
Subj: TLE 28 12
Path: IZ3LSV<DB0ERF<DB0RES<IR2UBX<OK0NBR<OK2PEN<PY2BIL<LU9DCE
Sent: 191228/1600Z 6054@LU9DCE.TOR.BA.ARG.SOAM LinBPQ6.0.19

            __    _  _  ___  ____   ___  ____    ____  ____  ____
           (  )  / )( \/ _ \(    \ / __)(  __)  (  _ \(  _ \/ ___)
           / (_/\) \/ (\__  )) D (( (__  ) _)    ) _ ( ) _ (\___ \
           \____/\____/(___/(____/ \___)(____)  (____/(____/(____/
               ESTACION DE PACKET RADIO - BUENOS AIRES (GF05OM)
                   BOLETINES INFORMATIVOS PROGRAMADOS (BIP)
                      LINUX - HELLOCODELINUX@GMAIL.COM
+----------------------------------------------------------------------------+
OSCAR 7
1  7530U 74089B   19362.51751824 -.00000045  00000-0 -10633-5 0  9996
2  7530 101.7749 328.3996 0012218 336.6069 133.6273 12.53641348 64689
OSCAR 11 (UoSAT 2)
1 14781U 84021B   19362.11735092  .00000058  00000-0  13258-4 0  9991
2 14781  97.5982  17.5926 0009643  53.9983 306.2124 14.83130832927281
OSCAR 19 (LUSAT)
1 20442U 90005G   19361.90225238 -.00000012 +00000-0 +12139-4 0  9991
2 20442 098.6720 303.7704 0010906 306.7299 053.2883 14.32941251563849
EYESAT A
1 22825U 93061C   19361.90738536 -.00000028 +00000-0 +72807-5 0  9999
2 22825 098.9172 355.0705 0008816 153.1993 206.9645 14.30074334369151
ITAMSAT
1 22826U 93061D   19361.93417568 -.00000016 +00000-0 +11824-4 0  9990
2 22826 098.9111 355.0655 0009527 142.6739 217.5106 14.30408954369384
RADIO ROSTO
1 23439U 94085A   19361.88555892 -.00000065 +00000-0 -65615-3 0  9996
2 23439 064.8131 165.3202 0146010 075.5751 286.1326 11.27569438029563
JAS 2
1 24278U 96046B   19361.87954505 -.00000022 +00000-0 +10773-4 0  9998
2 24278 098.5642 129.4943 0351290 101.8329 262.2428 13.53094880153540
TECHSAT 1B
1 25397U 98043D   19361.83719345 -.00000016  00000-0  12204-4 0  9991
2 25397  98.7106 299.8228 0001313 150.7185 209.4068 14.23676684115210
ISS (ZARYA)
1 25544U 98067A   19362.59555556  .00000695  00000-0  20477-4 0  9990
2 25544  51.6443 117.5512 0005193  78.7823  93.3630 15.49523133205412
PCSAT
1 26931U 01043C   19361.90363560 -.00000024 +00000-0 +22515-4 0  9997
2 26931 067.0502 227.6744 0006921 263.5728 096.4586 14.30562863952390
SAUDISAT 1C
1 27607U 02058C   19362.49873955 -.00000041  00000-0  15017-4 0  9992
2 27607  64.5535 180.1067 0068356 218.3008 141.3230 14.75598006915481
CUTE-1
1 27844U 03031E   19362.49201120  .00000027  00000-0  32035-4 0  9998
2 27844  98.6833   7.8154 0009687 187.4186 172.6850 14.22213099855699
CUBESAT XI 4
1 27848U 03031J   19362.46891259  .00000017  00000-0  27457-4 0  9998
2 27848  98.6906   8.3289 0009352 199.4852 160.5969 14.21803460855537
MOZHAYETS 4
1 27939U 03042A   19362.48616761  .00000087  00000-0  24125-4 0  9992
2 27939  98.0656 134.8701 0013223 172.0615 188.0805 14.66827099868805
CUBESAT XI 5
1 28895U 05043F   19362.35543682  .00000079  00000-0  24071-4 0  9995
2 28895  97.9842 138.8121 0018079 103.1958 257.1263 14.63724342755660
CUTE-1.7+APD II
1 32785U 08021C   19361.89650764  .00000162  00000-0  23116-4 0  9997
2 32785  97.5598 352.6545 0012791 352.3806   7.7215 14.88395066632279
DELFI C3
1 32789U 08021G   19362.35672389  .00001040  00000-0  72753-4 0  9997
2 32789  97.4415  45.9925 0012247 179.0666 181.0588 15.07349302635982
SEEDS
1 32791U 08021J   19361.79096546 +.00000215 +00000-0 +27098-4 0  9997
2 32791 097.5327 358.6716 0012351 323.5422 036.4955 14.90940411632653
YUBELEINY
1 32953U 08025A   19362.48389965  .00000037  00000-0  19437-3 0  9997
2 32953  82.5049  24.8642 0020264  70.7752 289.5517 12.43093193526263
PRISM (HITOMI)
1 33493U 09002B   19362.06465276  .00000231  00000-0  25698-4 0  9990
2 33493  98.1310 290.3837 0014023 266.9104  93.0511 14.96851323593925
KKS-1 (KISEKI)
1 33499U 09002H   19361.86498343 +.00000065 +00000-0 +17603-4 0  9996
2 33499 098.3327 206.5622 0008337 321.2353 038.8256 14.75491361587132
SWISSCUBE
1 35932U 09051B   19361.76970526  .00000080  00000-0  29165-4 0  9994
2 35932  98.5997 173.5755 0006655 300.5530  59.5009 14.56343302544734
BEESAT
1 35933U 09051C   19361.76138556  .00000078  00000-0  28554-4 0  9992
2 35933  98.6009 175.3973 0005016 317.7231  42.3578 14.56425256544842
ITUPSAT 1
1 35935U 09051E   19362.06775022  .00000071  00000-0  27583-4 0  9997
2 35935  98.6119 175.9344 0007263 312.0941  47.9637 14.55577814544626
XIWANG-1 (HOPE-1)
1 36122U 09072B   19362.48338204 -.00000042  00000-0 -24958-6 0  9997
2 36122 100.0809 355.8549 0006920 261.2057  98.8274 13.16352549482240
TISAT 1
1 36799U 10035E   19362.40128729  .00000411  00000-0  47433-4 0  9998
2 36799  98.1755 161.2545 0012527 168.6905 191.4596 14.91235323513486
JUGNU
1 37839U 11058B   19362.37630160  .00000297  00000-0  16230-4 0  9996
2 37839  19.9605 246.3045 0018817 291.1035 224.8650 14.12667785424534
SRMSAT
1 37841U 11058D   19361.89974890 +.00000315 +00000-0 +27849-4 0  9995
2 37841 019.9729 309.9484 0012027 147.6517 244.3181 14.10646671423774
M-CUBED/EXP-1 PRIME
1 37855U 11061F   19361.91658017 +.00000561 +00000-0 +36033-4 0  9995
2 37855 101.7262 356.3394 0172108 226.8310 131.8410 15.05904968445236
HORYU 2
1 38340U 12025D   19362.13515833  .00000138  00000-0  28133-4 0  9991
2 38340  98.3061  46.2602 0010656 226.3441 133.6885 14.75792044409546
STRAND 1
1 39090U 13009E   19362.14846459  .00000019  00000-0  21924-4 0  9998
2 39090  98.4681 204.7046 0010256  78.3868 281.8468 14.35111620357990
SOMP
1 39134U 13015E   19362.09163031  .00001171  00000-0  61655-4 0  9991
2 39134  64.8630 116.9026 0038328 271.7257  87.9480 15.20609365369842
BEESAT 3
1 39135U 13015F   19362.16240645  .00000898  00000-0  53191-4 0  9998
2 39135  64.8655 137.7081 0043809 274.1171  85.4949 15.17815274369458
BEESAT 2
1 39136U 13015G   19361.81158153 +.00000889 +00000-0 +54041-4 0  9997
2 39136 064.8700 143.2417 0030955 281.1763 078.5883 15.17238712368925
CUBEBUG 1
1 39153U 13018D   19362.23454125  .00000166  00000-0  28543-4 0  9990
2 39153  97.9817  99.3273 0015657 296.3345  63.6258 14.80644561360304
ZACUBE
1 39417U 13066B   19362.51138333  .00000165  00000-0  26957-4 0  9993
2 39417  97.5610   5.1602 0060193 121.0418 239.6724 14.81198222329582
TRITON 1
1 39427U 13066M   19362.16242701  .00000100  00000-0  24260-4 0  9994
2 39427  97.7020 327.9170 0112298 269.3923  89.4415 14.67923886326576
GOMX 1
1 39430U 13066Q   19362.43527459  .00000180  00000-0  41636-4 0  9998
2 39430  97.7722 306.5424 0151518   7.0920 353.2365 14.59330482324711
HUMSAT D
1 39433U 13066T   19361.85835180 +.00000512 +00000-0 +54964-4 0  9996
2 39433 097.5302 041.2629 0031122 022.1052 338.1502 14.92336667330550
CUBEBUG 2
1 39440U 13066AA  19362.02372226  .00000128  00000-0  24699-4 0  9996
2 39440  97.6149 349.2362 0080136 179.1711 180.9647 14.75935492328346
FUNCUBE 1
1 39444U 13066AE  19362.06693290  .00000228  00000-0  34188-4 0  9996
2 39444  97.5571   6.8578 0059346 115.6197 245.1165 14.82034226328426
UWE-3
1 39446U 13066AG  19361.90158238 +.00000147 +00000-0 +26009-4 0  9991
2 39446 097.5874 356.2975 0070648 151.7881 208.7186 14.78469933327076
SPROUT
1 39770U 14029E   19362.36301926  .00000501  00000-0  61261-4 0  9999
2 39770  97.8918 104.5154 0009100 166.2350 193.9110 14.87554546303473
UNISAT 6
1 40012U 14033C   19362.39661663  .00000127  00000-0  26304-4 0  9998
2 40012  97.7300 220.4212 0057858 194.6844 165.2687 14.74049263297077
DUCHIFAT 1
1 40021U 14033M   19362.52612990  .00000279  00000-0  34174-4 0  9994
2 40021  97.9337 287.8262 0013844 130.0313 230.2122 14.90772665300274
QB50P1
1 40025U 14033R   19361.82773039  .00000156  00000-0  22599-4 0  9994
2 40025  97.9110 281.2158 0013180 142.1084 218.1063 14.89043953299917
CHUBUSAT 1
1 40300U 14070C   19362.45360983  .00000490  00000-0  24142-4 0  9998
2 40300  97.3105  71.5819 0021404  97.4129 274.0218 15.22302898285344
NUDT-PHONESAT
1 40900U 15049B   19362.53989235  .00001685  00000-0  73650-4 0  9992
2 40900  97.4342  10.0329 0011422 223.4467 257.2598 15.23440875237017
ZDPS 2A
1 40901U 15049C   19362.44331931  .00000548  00000-0  30264-4 0  9998
2 40901  97.4610   5.5241 0011882 251.1469 213.0711 15.17997334236474
ZDPS 2B
1 40902U 15049D   19362.49530189  .00000894  00000-0  47394-4 0  9996
2 40902  97.4569   2.9238 0011876 247.6715 263.6141 15.17911262236454
XW-2A
1 40903U 15049E   19362.43726418  .00001453  00000-0  35484-4 0  9992
2 40903  97.3141  46.0785 0013705 160.2740 327.6013 15.42463188239951
KAITUO 1A
1 40904U 15049F   19362.48484765  .00000655  00000-0  37991-4 0  9992
2 40904  97.4714   1.2666 0012949 259.7095 259.2720 15.15551231236191
OBJECT G
1 40905U 15049G   19362.49837311  .00000034  00000-0  54142-5 0  9992
2 40905  97.4778 358.6373 0014031 254.9813 222.4141 15.14422662236053
XW-2C
1 40906U 15049H   19362.50381703  .00000252  00000-0  16615-4 0  9998
2 40906  97.4718   1.4630 0013275 248.8710 228.9035 15.15872784236209
XW-2D
1 40907U 15049J   19362.46333391  .00000675  00000-0  38462-4 0  9997
2 40907  97.4704   1.1100 0012614 246.3132 268.3902 15.16083364236212
LILACSAT 2
1 40908U 15049K   19362.48164752  .00000529  00000-0  32799-4 0  9998
2 40908  97.4845 359.7180 0014278 255.9952 263.3553 15.13924169235976
XW-2F
1 40910U 15049M   19362.50091362  .00000736  00000-0  39914-4 0  9996
2 40910  97.4648   3.4507 0013147 236.5652 274.6941 15.17616818236253
XW-2B
1 40911U 15049N   19362.50445957  .00000383  00000-0  23385-4 0  9993
2 40911  97.4726   1.8317 0012462 246.7736 264.9763 15.16009282236116
KAITUO 1B
1 40912U 15049P   19362.50014388  .00000881  00000-0  44100-4 0  9995
2 40912  97.4490   7.3916 0013765 214.3319 297.3215 15.19969168236591
TIANWANG 1C (TW-1C)
1 40926U 15051B   19362.45247464  .00011774  00000-0  14691-3 0  9994
2 40926  97.1115  48.6072 0007683  27.3001  97.6504 15.59993483240161
